Location: Unspecified
(0.0000°N, 0.0000°E)
Time: 11:47:08
(UTC+00:00)

N. Korean satellite - Pass Details

Date: 24 May 2017
Orbit: 462 x 515 km, 97.2° (Epoch: 22 August)

Event Time Altitude Azimuth Distance (km) Brightness Sun altitude
Rises 18:46:54 0° 175° (S) 2,545 10.0 -11.7°
Reaches altitude 10° 18:48:58 10° 178° (S) 1,672 9.1 -12.1°
Maximum altitude 18:52:31 62° 259° (W) 559 7.1 -13.0°
Drops below altitude 10° 18:56:08 10° 340° (NNW) 1,695 9.9 -13.8°
Sets 18:58:14 0° 344° (NNW) 2,584 10.8 -14.3°
